sat.trackr.live / text

‹ back to catalog

GAOFEN-5 01A

NORAD 54640 · 2022-165A

PAYLOAD ACTIVE UNKNOWN

§ Identity

Operator
Country
PRC
Launch date
2022-12-08
Launch site
TAISC
Launch vehicle
Mass (kg)
RCS (m²)

External: N2YO · Heavens-Above · Gunter

§ Orbital elements

Epoch: 2026-09-20T22:23:40.081920Z

Period
98.78 min
Inclination
98.2391°
Eccentricity
0.0003062
Mean motion
14.57761985 rev/d
Perigee alt
698.2 km
Apogee alt
702.6 km
Semi-major
7,078.5 km
B*
5.9138e-5
RAAN
200.2933°
Arg perigee
76.2359°
Mean anomaly
283.9181°
Rev number
20,136

§ Raw data

GAOFEN-5 01A1 54640U 22165A   26263.93310280  .00000224  00000+0  59138-4 0  99972 54640  98.2391 200.2933 0003062  76.2359 283.9181 14.57761985201362

JSON: /api/v1/satellites/54640 · /tle

For live sub-satellite position, see the globe view (requires WebGL).

§ Visibility from observer

Set your observer location to see the next 7 days of passes ≥ 10°. The values pass through the URL so the page stays shareable.

No JS? Fill the form by hand. The geolocation button needs JavaScript.